Theta_e
304 304 304 304 304 305 305 306 306 307 307 307 309 309 310 309 308 309 312 315 318 322 322 322 325 328 329 330 330 330 330 332 333 333 334 334 334 333 334 335 335 336 335 335 337 331 320 317 317 316 317 321 323 323 322 323 324 325 333 337 334 334 332 330 331 322 322 326 318 315 318 320 322 320 318 321 321 321 322 323 324 325 325 323 323 325 326 327
305 304 304 304 304 304 305 305 305 306 306 307 308 309 309 309 308 308 311 313 316 320 322 321 323 328 330 329 329 330 329 330 331 332 333 333 332 333 334 335 335 336 335 334 336 333 323 318 317 315 318 322 323 323 323 322 322 328 335 336 336 337 329 325 326 319 319 323 318 316 317 320 321 319 319 322 322 322 325 324 323 324 323 323 323 324 327 327
305 304 304 304 303 304 304 305 305 305 305 306 308 309 309 309 309 308 310 313 315 318 321 321 321 326 329 330 329 330 329 328 329 331 332 332 332 332 334 335 335 336 335 333 334 333 326 319 317 316 319 322 323 323 322 322 322 323 329 337 339 332 325 322 322 320 321 320 317 316 317 318 320 320 320 322 322 323 325 324 322 323 322 322 322 323 326 327
306 305 304 304 304 303 304 305 305 305 305 305 307 308 309 309 309 308 309 312 314 317 319 321 320 323 329 331 330 329 328 329 329 329 330 331 332 331 332 334 335 336 336 334 332 329 323 318 316 315 319 322 322 323 322 322 322 320 324 336 334 325 327 327 322 320 320 318 316 316 317 318 319 320 320 320 324 326 323 321 321 321 320 320 320 322 324 325
306 306 305 304 304 304 304 304 305 305 305 305 306 308 308 309 309 308 308 311 314 316 318 320 319 321 328 331 330 327 328 331 329 327 327 330 331 331 332 333 335 335 336 336 330 323 319 316 315 316 320 322 322 323 323 323 322 321 321 324 322 321 327 327 323 323 320 317 316 315 317 320 319 319 320 320 324 326 323 321 321 320 320 320 319 320 321 323
307 306 305 304 304 304 304 303 304 305 305 305 306 307 308 308 308 307 308 310 313 315 317 320 319 320 326 330 330 328 328 330 329 326 325 327 330 330 331 333 334 335 336 336 330 321 317 315 315 318 320 322 323 324 325 323 322 324 323 319 319 321 324 324 323 322 319 317 316 316 318 319 318 319 320 320 322 322 321 321 321 320 321 320 319 320 320 321
308 307 306 305 304 304 304 303 303 304 305 306 306 307 308 308 308 308 307 309 312 314 316 320 319 319 324 327 329 330 328 326 325 326 326 326 329 329 330 333 334 336 336 336 331 321 316 316 316 319 320 322 323 322 324 323 321 325 326 321 320 321 321 321 320 318 317 317 317 317 318 318 319 320 319 319 322 321 321 321 320 320 321 321 320 320 319 319
309 307 306 306 304 304 304 303 303 304 305 306 306 307 308 308 308 308 307 308 311 313 315 319 319 319 321 324 327 330 328 324 320 323 326 327 329 328 329 331 333 336 336 335 334 324 317 316 317 318 320 321 322 322 322 323 321 324 326 323 320 320 320 320 318 317 316 316 317 317 317 317 319 319 316 319 322 321 322 321 320 320 320 321 320 319 320 319
309 308 307 306 305 304 303 303 303 303 305 306 306 307 309 309 308 308 307 307 309 312 315 317 319 319 319 322 326 328 327 322 319 321 323 324 327 329 329 330 332 336 335 332 332 325 316 316 317 318 319 320 321 322 321 323 325 323 323 322 321 321 321 321 320 318 317 316 316 316 316 316 317 316 316 319 321 321 321 321 320 319 319 320 320 319 320 320
309 308 307 306 305 304 303 303 303 303 304 305 306 307 308 309 308 308 307 307 308 310 314 317 319 320 319 321 324 326 326 321 319 320 321 321 322 325 329 331 331 335 334 327 327 323 316 317 317 317 319 320 321 322 321 323 326 323 322 322 323 323 322 321 321 320 319 316 315 317 317 315 314 315 317 319 320 320 320 320 320 319 319 319 320 320 320 320
310 309 307 307 306 305 303 303 303 303 303 304 306 306 308 309 309 308 308 307 308 310 313 316 319 319 319 320 322 324 325 322 319 318 320 322 321 320 326 331 332 334 334 326 325 327 320 317 317 317 320 322 322 322 322 322 324 323 321 323 323 322 322 319 319 319 318 317 315 316 316 314 314 314 316 318 318 319 318 319 320 319 319 319 319 320 320 320
310 309 308 307 306 305 304 303 303 303 303 303 305 306 307 309 309 309 308 309 309 310 312 315 318 319 319 320 321 324 325 322 319 319 319 320 321 320 324 329 331 333 334 330 328 329 323 316 315 318 320 322 324 324 324 323 324 323 322 326 326 322 324 321 318 317 316 318 316 314 318 318 316 316 315 317 319 319 318 318 318 319 318 318 319 319 319 320
310 310 308 307 307 306 304 303 303 303 303 303 304 306 306 308 309 309 309 309 309 309 311 314 317 319 320 320 320 323 325 322 319 318 318 317 319 323 325 328 331 332 334 334 333 333 328 320 315 317 320 323 325 325 326 324 323 324 323 328 329 326 328 325 317 315 315 316 316 317 324 324 320 318 317 318 319 319 319 319 319 319 318 318 318 318 319 319
310 310 309 307 307 306 304 303 303 302 303 302 303 305 306 307 309 309 309 309 309 309 311 313 316 320 320 320 320 321 323 322 321 321 321 319 319 323 326 327 330 333 333 332 331 331 330 322 317 317 321 324 324 326 328 325 326 329 324 326 331 332 336 329 314 313 317 315 314 320 324 326 323 320 319 319 320 319 319 320 320 321 320 319 319 318 319 319
309 309 309 308 307 306 304 304 303 302 302 302 303 305 306 306 308 309 308 309 310 310 310 312 315 319 320 319 319 320 321 322 323 325 324 323 321 323 325 327 329 331 331 327 322 321 321 319 318 319 324 325 325 329 331 329 331 331 328 329 331 331 339 334 314 311 320 316 313 319 323 324 323 320 320 321 320 320 319 320 321 321 322 321 320 319 319 319
309 309 309 307 307 306 305 304 303 302 301 301 302 304 306 306 307 309 309 308 309 309 311 314 315 318 320 320 319 320 321 322 322 325 325 323 323 321 322 326 328 329 329 325 319 317 318 318 319 321 324 325 327 331 332 331 332 331 329 332 332 329 334 335 320 312 316 317 313 317 323 327 325 319 320 322 321 319 317 318 319 319 321 321 320 320 319 320
309 309 309 307 306 306 305 304 303 302 301 302 303 303 305 306 307 308 309 309 310 310 311 315 316 317 319 318 319 321 322 322 322 324 325 324 323 320 320 324 326 326 325 323 319 317 320 321 321 323 325 327 329 330 332 332 333 331 329 331 332 330 330 333 329 317 313 316 316 317 320 325 326 320 318 320 320 318 315 316 318 318 319 319 319 320 319 319
309 309 309 307 306 306 305 304 303 302 301 303 304 304 305 307 307 308 309 310 311 312 313 315 316 318 319 317 319 322 321 322 323 324 325 326 324 322 320 324 325 323 323 322 319 317 321 321 322 325 327 329 329 327 330 332 332 331 329 330 329 329 330 331 332 323 314 316 319 318 318 320 322 320 318 319 318 319 318 318 320 319 318 318 317 318 319 318
309 309 308 308 307 306 305 305 303 302 302 304 305 305 306 308 309 309 310 311 312 314 316 315 316 318 319 317 318 322 322 322 323 324 325 326 325 324 323 325 324 323 323 324 320 317 320 322 322 325 326 327 327 325 328 330 330 331 330 331 330 330 330 329 330 324 315 315 319 318 319 318 319 319 318 318 317 317 318 318 319 319 318 318 317 317 318 318
308 308 308 308 307 306 305 304 303 302 303 304 305 307 308 309 310 310 310 312 312 313 315 315 315 315 317 317 317 320 323 323 323 325 325 326 326 325 324 324 323 323 324 325 321 318 320 322 321 322 324 324 325 325 327 331 332 331 330 331 332 332 331 329 329 325 315 316 320 318 318 319 319 319 317 316 316 315 316 315 316 318 319 319 320 320 320 320
308 309 308 307 307 306 305 304 303 303 304 305 306 308 310 309 309 310 310 311 311 310 312 314 315 314 315 318 318 319 323 324 324 325 325 325 325 324 323 323 322 323 324 323 322 320 320 321 321 320 321 322 324 325 327 331 332 332 331 331 332 332 331 330 329 326 316 316 322 320 318 318 317 317 315 314 316 316 315 315 315 316 318 319 320 321 322 323
308 308 308 307 307 306 305 304 303 303 304 306 306 307 308 307 308 309 309 310 310 310 311 313 314 315 315 317 318 319 323 324 324 325 325 324 323 323 323 322 323 324 324 323 323 323 321 321 321 319 319 322 324 325 327 329 331 332 331 331 333 331 330 330 328 325 319 318 327 326 321 320 319 318 316 314 314 316 316 317 317 317 318 319 319 321 323 324
308 308 308 307 306 306 305 304 303 303 305 307 307 307 307 306 308 310 309 310 311 310 312 313 314 315 315 316 317 319 322 323 323 324 324 324 322 322 322 322 323 324 324 324 324 325 324 322 320 319 320 322 324 325 326 328 329 331 331 330 333 331 331 333 328 324 321 320 324 326 323 323 322 321 320 316 315 318 319 318 319 320 319 319 320 321 323 324
308 308 308 307 306 305 304 304 304 304 306 307 307 306 306 307 309 310 309 310 312 311 311 312 313 314 315 316 316 318 322 323 322 323 323 324 323 322 323 322 323 324 324 324 323 325 325 323 320 320 321 322 325 326 326 327 328 330 331 329 332 332 331 333 329 322 320 320 319 322 326 327 325 326 324 321 318 318 318 318 319 320 320 320 320 321 322 323
308 308 307 306 306 305 304 304 305 305 305 306 306 305 306 308 308 310 310 310 311 312 311 311 312 314 315 316 316 318 321 321 321 323 323 324 324 323 323 322 324 325 324 324 324 324 325 322 321 322 322 323 326 326 326 327 328 330 330 329 331 332 331 330 327 323 325 327 323 323 331 335 333 332 329 326 325 322 318 317 318 320 321 320 319 321 323 324
307 307 307 306 305 304 304 305 304 304 306 306 305 306 306 307 309 309 310 310 310 311 313 313 313 314 314 316 318 318 320 321 320 322 323 324 324 323 324 323 324 325 324 323 324 325 324 322 322 323 323 325 326 327 327 326 328 330 330 330 331 332 333 329 325 328 332 332 326 322 330 336 335 334 333 329 328 327 322 319 318 319 320 320 320 323 326 326
307 307 306 305 305 304 305 306 304 304 307 306 305 306 305 307 309 310 309 310 310 311 314 313 313 314 314 315 318 319 320 321 320 321 322 324 324 323 324 325 324 324 323 323 326 326 324 323 324 323 324 327 327 327 327 326 328 331 330 330 331 331 334 329 325 330 331 328 325 320 324 331 331 331 333 329 329 330 326 324 321 317 318 320 320 323 326 328
307 306 306 305 305 304 304 305 304 304 306 306 305 306 306 307 309 309 309 310 311 311 313 313 312 314 314 316 317 319 320 321 322 322 321 323 325 323 324 324 324 324 323 324 328 327 324 324 324 323 325 326 327 327 327 327 329 329 328 328 328 329 331 328 326 328 327 327 329 323 321 328 330 328 327 325 328 331 327 327 324 318 318 320 322 324 326 327
307 306 306 305 304 304 303 303 303 304 305 306 306 306 307 308 308 308 309 311 312 311 311 313 313 313 314 316 317 318 319 319 320 322 321 322 323 322 324 324 323 324 323 324 328 327 324 323 322 323 325 326 327 328 327 328 328 326 324 324 325 326 327 328 329 329 328 328 331 326 322 329 333 329 326 323 326 330 327 327 326 321 320 323 324 325 325 325
306 306 305 304 304 304 303 303 303 303 304 305 306 307 308 308 308 309 310 311 312 312 311 312 313 313 315 317 317 318 317 316 319 321 320 321 322 321 323 323 322 324 324 324 326 325 322 322 322 323 324 325 328 328 326 327 326 323 324 326 326 327 328 329 329 329 330 331 332 328 323 328 334 332 329 326 326 327 326 326 326 323 321 323 325 326 326 326
306 306 305 304 304 303 303 304 303 303 304 305 306 307 308 308 308 310 311 310 312 313 313 313 313 314 316 317 318 319 316 316 318 320 320 321 322 322 322 323 323 324 324 324 325 323 322 322 323 324 323 323 326 327 324 322 322 324 328 330 330 328 328 329 326 326 332 333 331 329 324 326 332 334 331 329 326 327 326 326 329 325 321 322 324 325 326 327
305 305 304 304 303 303 303 303 302 303 306 306 307 308 309 310 309 311 311 308 310 313 313 314 314 315 316 316 317 318 316 315 316 319 321 322 323 323 323 325 324 323 324 323 324 324 323 323 323 323 322 322 326 327 323 321 324 327 328 329 331 330 330 332 329 328 334 332 325 324 324 325 329 331 330 329 328 327 324 322 325 324 321 323 325 325 325 326
305 304 304 303 302 303 304 303 302 304 306 307 308 308 309 310 311 311 310 307 309 313 313 314 315 315 316 316 316 316 316 316 315 318 321 321 323 323 323 324 323 324 324 321 322 324 324 323 323 323 322 322 325 326 325 325 326 327 327 328 331 330 332 335 332 331 333 329 321 320 324 327 329 329 327 328 327 324 320 319 321 322 322 324 324 323 324 325
304 304 304 303 302 303 303 303 303 305 306 307 309 309 309 311 312 311 310 308 310 313 313 314 315 315 316 316 315 316 317 316 315 317 321 322 323 323 323 324 323 324 324 321 321 323 325 325 324 323 323 323 324 325 325 326 326 326 328 330 330 330 335 335 333 335 335 328 321 321 325 330 333 332 325 319 318 317 317 320 320 320 322 323 322 321 322 323
304 304 303 302 302 303 303 303 304 305 307 307 309 310 310 311 312 311 310 309 311 313 314 314 314 316 316 315 315 316 317 317 315 315 319 321 323 324 323 323 323 322 322 322 322 322 325 328 325 323 323 323 323 324 323 325 327 326 328 333 330 330 336 331 326 328 331 330 326 322 325 328 329 327 320 316 316 315 315 316 316 317 319 320 320 321 322 322
304 303 303 302 302 302 302 303 305 306 307 307 309 310 310 311 312 311 310 312 314 314 314 315 314 315 316 315 315 316 316 318 316 315 317 319 321 324 323 323 322 321 322 324 324 322 325 327 324 323 323 322 323 323 322 325 327 326 327 331 326 325 332 330 323 319 323 330 329 323 325 327 327 326 322 322 324 322 320 317 312 314 317 317 319 321 323 323
303 303 303 303 303 303 303 303 305 306 306 307 309 310 310 311 311 310 310 312 314 313 314 315 314 314 315 315 315 315 317 318 315 315 316 316 318 321 322 322 322 321 321 324 324 324 326 327 323 323 324 323 321 322 323 322 323 326 328 326 323 323 327 328 328 326 325 328 328 325 326 329 331 330 324 324 326 326 328 325 316 314 314 314 317 319 320 320
303 303 303 303 303 303 303 304 305 306 307 307 309 310 310 310 309 310 310 310 313 314 313 315 314 313 314 314 314 314 315 317 315 315 317 316 317 320 322 322 321 319 320 322 324 325 327 327 323 323 324 323 321 323 325 322 319 323 325 323 324 328 326 325 329 331 329 329 329 327 325 326 328 327 322 324 326 326 327 327 325 321 316 313 316 319 319 319
302 303 303 303 303 303 304 304 305 306 307 308 309 310 309 308 307 307 308 310 313 313 313 314 314 313 313 313 313 313 314 316 316 316 317 316 317 320 322 322 321 319 319 320 323 323 324 328 326 322 323 323 323 324 326 325 321 321 322 323 325 328 327 326 329 332 332 329 329 329 326 325 325 323 323 325 327 328 326 326 328 323 316 315 317 320 321 320
303 304 304 303 302 303 304 305 306 307 307 308 309 309 308 308 306 303 304 309 313 313 313 315 314 313 314 313 313 312 312 315 316 316 317 316 317 320 321 322 321 320 318 319 321 321 322 327 327 322 321 324 325 325 325 326 324 323 325 325 325 326 326 327 327 330 331 329 329 329 327 328 327 323 324 325 326 328 326 327 327 318 313 316 317 318 318 317
303 304 304 303 303 304 305 306 307 307 307 308 309 308 306 305 305 304 304 306 311 312 312 315 315 313 313 313 313 313 312 313 314 315 317 315 316 319 320 321 321 320 319 321 322 322 322 325 326 322 322 325 326 325 324 324 323 324 326 325 325 325 326 328 328 327 327 327 331 330 327 331 330 322 320 322 325 325 323 323 323 315 312 315 316 316 316 316
304 304 304 304 304 305 306 308 307 306 307 308 307 306 306 304 304 306 305 305 309 311 310 313 316 315 314 313 313 314 313 312 312 314 317 316 316 319 320 320 320 319 320 321 321 321 323 326 325 322 323 325 324 322 324 325 323 323 324 324 325 325 324 327 327 326 326 326 329 329 326 328 324 317 319 323 321 320 318 316 316 315 314 316 315 315 315 315
304 304 304 305 306 306 307 308 307 306 307 306 305 304 305 306 305 306 307 307 308 309 311 316 316 314 315 316 315 314 314 314 312 312 315 317 316 318 319 320 320 320 320 321 321 320 322 325 323 322 324 323 321 321 323 325 323 324 325 325 325 325 324 326 326 326 326 326 326 327 327 328 321 317 320 319 314 314 313 312 312 314 315 316 315 314 315 315
303 304 304 305 306 307 308 308 308 307 305 304 305 304 304 305 305 306 308 309 309 310 313 317 314 312 314 314 315 316 314 314 314 313 314 317 317 317 319 320 320 321 321 321 322 321 322 324 322 323 325 323 322 322 322 323 323 325 326 324 324 324 324 326 326 325 325 326 326 327 328 326 320 316 315 314 315 316 312 310 311 312 313 315 314 314 315 315
302 303 304 305 306 306 306 307 307 307 305 304 306 305 305 304 304 304 307 308 306 307 310 311 309 311 313 313 316 318 315 314 316 316 315 319 319 317 318 320 320 321 321 320 320 320 322 324 323 324 326 325 324 325 325 325 324 325 325 324 323 324 324 325 325 324 325 326 325 326 326 323 318 314 314 314 316 318 315 311 311 311 312 314 314 315 316 315
303 303 303 303 303 303 303 303 305 306 305 306 306 306 307 306 303 303 304 305 304 305 307 307 308 311 313 313 317 319 315 314 316 317 318 320 320 318 318 319 320 320 320 319 319 320 322 324 323 323 325 325 324 326 326 326 325 325 324 323 323 323 323 324 324 324 325 324 324 324 324 323 319 314 315 316 315 320 322 314 309 311 313 313 315 316 316 316
303 304 303 303 302 302 302 302 303 305 306 307 307 306 306 307 306 304 305 305 304 305 306 307 310 314 314 313 317 318 315 315 315 317 319 319 320 319 317 318 320 320 320 319 318 320 321 322 322 323 323 323 324 326 325 324 324 324 324 324 323 323 323 324 324 324 324 324 324 323 323 324 321 315 316 318 317 321 324 313 308 312 314 314 316 316 316 317
303 303 303 304 305 304 303 303 304 305 306 307 306 306 306 307 307 307 306 305 304 305 308 310 311 314 313 313 316 315 313 315 315 317 320 319 318 319 317 318 319 319 319 319 318 320 320 319 320 322 322 322 324 327 327 324 323 323 324 323 323 322 323 324 324 323 324 324 323 323 323 324 323 320 322 324 319 317 318 313 310 312 313 313 315 316 316 317
302 302 301 302 305 305 304 303 304 305 306 306 305 305 306 307 307 307 305 306 307 306 309 312 312 312 312 313 315 315 313 315 315 315 317 318 318 319 319 319 319 318 319 318 317 318 319 319 319 320 321 320 321 324 326 324 324 323 323 323 322 322 322 323 324 323 323 324 323 323 324 323 322 322 324 323 316 311 311 311 311 312 312 313 314 315 316 316
302 302 302 302 303 303 303 303 304 305 305 306 306 305 306 307 307 306 304 306 309 309 309 312 311 310 310 311 315 315 313 315 317 315 314 316 317 318 319 320 320 319 318 318 317 317 319 320 318 319 321 320 319 322 323 324 324 323 323 323 322 322 322 322 323 323 323 324 323 323 324 323 321 320 319 317 314 313 313 312 311 313 313 313 313 314 315 316
303 303 302 303 304 304 304 304 305 306 305 306 306 305 305 306 305 305 304 304 307 308 309 310 310 309 310 311 315 316 312 313 316 313 312 314 314 314 316 317 319 320 319 317 316 316 318 320 319 319 320 321 320 321 321 322 324 324 323 323 322 322 322 322 322 323 323 323 323 324 323 322 321 320 318 315 315 317 316 311 311 314 314 314 314 315 315 315
303 302 303 304 304 304 304 304 305 306 306 306 305 305 305 305 303 305 306 304 303 305 306 308 308 309 310 311 314 314 309 309 311 309 308 311 309 308 309 310 313 318 320 319 317 316 317 319 319 318 320 321 321 320 320 321 323 324 323 323 322 322 321 322 322 322 322 322 323 323 323 321 321 321 319 317 317 318 316 312 312 314 315 315 315 316 316 316
Wind_Speed
32 32 31 31 30 29 29 29 30 30 30 32 31 30 30 29 31 32 32 30 28 26 26 33 36 33 34 33 28 27 27 30 34 36 37 37 35 32 31 31 28 25 21 20 23 21 19 20 19 17 15 12 10 11 12 9 10 8 3 2 3 4 4 5 6 7 3 1 5 11 17 13 6 10 11 7 8 8 11 15 13 13 17 15 9 7 7 9
32 32 31 31 30 30 29 29 30 30 31 31 31 31 30 29 30 31 32 31 29 27 25 30 35 34 34 33 31 28 28 29 31 37 39 36 34 34 32 30 28 26 22 19 23 23 21 23 22 18 16 12 8 11 12 10 11 6 2 2 4 5 5 6 8 9 5 2 7 13 16 16 10 12 14 7 6 8 8 12 13 14 17 17 14 11 10 10
33 33 32 31 30 30 29 29 29 31 31 31 31 32 31 30 30 31 33 31 30 28 26 28 33 34 31 32 32 30 30 28 29 39 41 35 34 36 34 31 29 27 24 20 21 25 23 22 22 18 15 11 8 11 11 9 9 4 3 3 5 6 5 6 10 10 9 6 5 10 14 14 11 14 15 8 5 6 8 12 13 16 19 18 16 14 13 12
33 34 34 32 31 30 29 29 29 30 32 31 32 31 31 30 30 31 33 32 31 28 27 28 32 35 30 27 31 34 31 23 32 44 41 37 38 36 34 33 30 26 26 23 21 24 23 21 20 18 15 10 9 10 9 9 9 4 5 4 5 7 4 7 12 10 8 8 5 9 11 10 11 14 15 10 5 4 13 19 19 19 18 17 18 17 15 15
35 34 34 33 32 30 30 29 29 30 31 32 32 31 31 30 30 31 33 34 31 29 28 27 32 36 30 24 30 39 30 12 24 44 41 37 40 39 35 33 31 27 27 26 23 24 23 21 20 18 14 8 7 6 7 13 11 5 5 5 5 8 4 6 11 10 9 8 6 9 10 11 14 14 17 15 8 9 17 20 21 20 17 15 16 17 17 18
36 35 35 34 33 32 30 29 29 29 31 32 31 31 30 30 31 31 33 34 32 31 29 27 31 36 32 24 31 41 33 11 6 23 39 41 39 39 37 33 31 29 29 28 26 25 23 21 19 18 12 6 8 7 8 16 13 5 5 5 7 9 6 4 8 10 10 8 9 11 10 13 14 10 17 20 17 18 16 13 14 16 18 16 15 17 18 19
37 36 35 34 34 33 31 30 29 29 30 31 30 31 30 29 30 30 33 34 33 32 29 28 29 35 35 26 32 40 41 37 20 7 16 30 39 40 36 34 33 30 31 32 29 27 25 23 20 19 12 5 9 9 9 14 13 6 3 6 10 12 10 6 7 9 9 9 10 10 9 11 14 8 12 20 24 24 16 11 10 11 16 18 17 17 18 17
37 36 36 35 35 33 32 31 30 29 30 31 31 31 29 29 29 30 33 34 34 32 29 29 27 35 37 29 34 35 38 58 55 31 10 8 26 36 35 36 34 33 33 34 33 31 27 25 24 20 10 6 10 10 9 9 6 6 5 6 8 11 13 9 7 8 8 8 8 10 9 11 14 8 8 19 24 23 21 17 13 11 14 19 20 19 18 18
38 37 36 35 35 34 33 32 31 30 30 31 31 31 29 28 29 30 32 34 35 32 30 30 27 32 36 34 32 25 36 60 60 55 39 20 17 22 31 38 38 35 35 35 35 34 30 27 28 22 10 9 12 9 11 9 3 8 10 7 6 7 10 10 10 9 8 8 7 10 8 8 12 7 7 19 22 19 22 21 18 15 14 19 21 20 19 18
39 38 37 35 35 34 33 32 32 31 30 31 31 31 30 28 28 29 31 34 34 33 31 30 28 29 34 36 26 15 37 58 53 56 57 45 34 26 26 35 40 39 37 36 36 36 33 28 29 25 12 10 11 7 11 11 5 9 12 9 8 8 6 8 11 12 10 8 9 10 7 6 8 6 6 15 19 18 19 20 20 18 16 18 20 21 21 20
39 38 37 36 35 34 34 33 32 31 31 32 31 31 30 28 28 28 31 32 33 33 31 31 28 28 33 33 23 14 26 44 52 58 56 49 44 41 34 32 40 41 38 38 37 37 35 30 29 25 12 6 9 6 8 12 7 7 10 7 9 8 5 6 8 9 9 6 10 11 4 3 5 5 7 11 14 16 18 19 21 21 18 17 19 20 21 21
39 38 37 36 35 34 34 33 32 31 31 32 31 31 30 29 28 28 30 30 32 32 31 31 27 27 31 31 31 26 19 30 48 52 49 45 40 44 40 31 38 43 40 40 38 37 35 31 29 25 13 6 7 3 7 16 10 5 8 4 6 5 4 8 7 7 9 4 8 8 2 5 5 8 11 11 13 13 15 18 20 22 22 20 19 20 21 21
40 39 37 37 36 34 34 33 33 32 31 31 31 31 30 29 28 28 29 30 32 31 31 31 27 26 27 28 38 37 22 23 35 38 42 44 40 43 39 29 36 43 41 43 41 38 37 33 31 29 18 10 9 5 4 12 10 4 5 2 2 2 4 8 7 6 8 4 8 11 3 7 9 14 15 15 17 15 16 19 20 22 24 24 23 24 24 23
42 39 37 37 36 34 34 34 33 32 31 31 31 30 30 29 28 27 28 29 30 30 31 30 26 26 27 30 35 37 34 27 25 28 35 41 43 47 41 30 35 43 42 43 42 39 40 37 31 27 19 10 10 8 3 3 5 3 2 1 2 3 5 6 5 9 7 4 9 11 4 8 8 13 15 16 21 21 22 23 24 25 25 26 27 27 28 26
43 40 38 37 36 35 34 34 33 32 31 31 31 30 29 29 27 27 28 29 30 30 30 28 28 25 21 28 30 29 37 37 30 27 30 38 44 48 43 34 35 42 43 40 36 33 35 38 31 20 12 9 10 7 3 2 0 2 3 3 2 4 5 5 4 13 9 4 9 9 3 8 8 11 14 16 20 22 26 29 29 30 29 29 30 30 31 30
42 40 39 37 36 35 34 33 33 32 31 30 30 29 28 28 27 26 27 29 29 29 29 27 30 27 12 13 24 28 32 38 42 35 30 37 44 47 45 35 32 38 41 35 31 28 27 29 26 16 10 8 7 5 3 2 2 3 5 4 3 5 5 4 3 12 11 3 6 7 4 6 6 8 13 16 22 23 24 28 29 30 31 32 32 33 33 32
43 40 39 37 36 35 34 33 32 32 31 29 28 28 27 26 26 26 26 29 28 28 30 27 28 29 18 8 15 29 37 36 41 40 32 35 41 45 45 37 29 33 35 30 28 28 22 19 15 10 7 4 5 6 4 8 8 4 4 4 3 4 6 3 3 8 10 4 6 8 7 9 5 5 8 9 15 20 21 25 27 27 30 32 32 33 35 35
43 41 38 37 36 35 34 33 31 31 30 27 25 25 26 24 23 24 26 27 26 25 26 29 26 19 17 20 15 21 39 38 33 37 34 33 38 41 42 39 26 24 27 21 19 23 18 11 6 3 5 4 5 9 11 12 11 8 8 5 3 2 5 7 3 5 9 5 7 8 7 14 11 7 9 8 8 15 20 25 27 27 29 30 31 32 34 35
44 41 38 37 36 35 33 32 31 30 29 26 24 24 24 23 20 22 25 25 25 19 12 20 29 13 4 22 29 17 27 38 33 34 37 34 34 34 36 35 26 23 21 12 13 20 17 7 3 4 7 11 13 17 17 9 9 11 9 6 5 4 6 6 4 4 8 6 6 8 9 15 14 9 15 20 14 13 18 21 22 25 25 26 29 31 33 35
45 42 39 38 36 35 33 32 30 30 29 26 26 24 21 18 12 13 24 28 30 28 16 16 31 31 13 14 32 24 17 31 35 34 38 38 37 33 30 29 25 21 15 9 11 20 20 9 7 11 14 19 19 19 13 3 6 10 8 6 6 6 6 4 3 4 5 6 6 9 11 15 14 8 14 22 15 12 19 21 22 25 25 26 27 29 31 33
45 42 40 39 36 34 33 31 30 30 29 27 30 27 23 24 15 12 24 27 33 41 36 27 29 42 36 15 22 30 23 26 34 38 39 40 41 31 26 24 15 9 11 11 11 16 18 10 13 20 18 16 14 11 8 4 7 9 8 7 7 7 6 5 4 3 2 4 5 7 9 15 14 9 15 16 8 13 23 23 24 27 29 32 32 31 31 30
45 42 40 38 36 35 32 31 30 30 29 28 32 32 31 37 28 15 18 15 24 42 41 37 31 32 37 24 19 28 27 21 26 38 41 41 39 26 22 22 10 7 10 10 10 10 11 10 19 24 16 11 10 10 10 7 7 7 7 6 6 6 2 2 2 1 2 4 4 5 6 13 13 11 14 13 11 21 31 29 29 30 30 33 35 35 35 33
45 43 40 38 36 35 32 30 30 28 31 31 34 39 37 39 29 12 11 5 11 30 37 38 36 28 29 31 28 24 23 18 19 34 43 41 37 29 22 17 12 12 9 8 10 9 9 16 22 18 13 13 11 11 12 8 6 5 6 7 5 5 4 3 2 1 2 2 2 2 4 9 10 7 9 15 23 29 31 30 33 34 33 35 36 35 35 35
44 42 40 38 36 34 32 29 29 30 34 35 36 41 36 32 28 16 11 4 4 16 32 40 38 33 28 27 29 26 21 20 21 32 45 43 37 31 22 17 15 13 11 13 15 13 12 13 14 14 13 16 12 11 12 9 7 5 6 8 5 5 7 5 2 2 1 2 1 1 6 8 9 9 10 14 20 24 26 25 30 36 38 37 36 36 36 35
43 42 39 38 36 34 31 28 32 34 34 36 37 38 35 29 29 23 12 3 4 5 18 34 33 32 31 24 26 29 21 18 22 34 47 47 40 27 18 20 16 10 14 18 14 14 14 8 18 18 14 16 13 11 13 10 7 6 7 9 8 8 7 5 5 4 1 4 2 1 5 7 5 9 12 10 8 12 16 17 25 35 36 35 36 38 39 37
44 42 39 39 36 33 30 28 35 35 32 37 38 35 35 30 27 27 13 1 6 4 6 21 22 23 29 23 22 25 14 12 21 37 49 48 45 32 18 15 11 10 16 16 8 7 8 9 15 16 14 16 13 10 13 13 9 7 6 7 8 10 8 7 7 5 2 4 2 2 6 7 6 7 11 8 6 10 10 10 21 30 30 31 34 38 39 38
43 42 39 38 36 35 34 31 33 35 33 37 37 34 34 30 27 26 14 1 6 8 8 14 15 18 25 22 24 19 5 9 18 31 47 47 42 34 20 14 10 11 10 7 6 4 8 11 11 14 15 13 13 12 14 16 10 6 7 11 9 9 9 8 7 5 3 2 2 1 3 5 8 8 6 5 7 10 10 10 17 22 26 30 33 37 40 40
43 41 39 38 37 38 37 32 32 37 37 33 32 33 30 31 31 21 9 5 4 9 8 11 13 18 22 23 30 20 6 15 14 20 43 46 38 25 16 19 19 15 12 9 9 7 11 15 14 17 16 12 14 13 13 16 9 3 7 11 9 8 7 6 6 4 1 1 4 4 2 3 8 6 1 4 7 11 13 15 15 16 24 30 32 37 39 41
42 40 39 38 36 36 36 33 32 35 35 30 27 29 28 32 27 11 3 6 5 6 6 13 14 16 19 19 27 24 11 9 6 19 37 37 33 19 8 21 25 16 16 15 11 4 5 15 18 17 13 10 10 8 12 15 7 2 7 10 9 7 5 5 4 3 3 2 8 6 5 5 9 8 4 1 5 11 15 15 12 14 23 29 32 35 35 35
41 39 38 38 35 36 36 35 33 30 31 32 27 25 29 28 15 4 7 6 3 2 6 15 15 17 20 13 13 20 12 1 4 22 30 24 28 19 8 21 24 13 12 13 12 3 1 10 15 11 10 8 7 8 10 13 9 9 8 8 8 5 4 4 2 4 2 6 9 10 11 8 8 9 9 5 7 13 14 11 8 11 20 28 32 34 34 33
41 39 38 38 37 37 36 37 36 30 29 30 27 27 27 17 6 6 9 3 3 3 5 11 15 19 21 13 9 14 9 1 5 16 16 12 17 14 6 13 14 9 8 9 9 3 3 8 7 7 14 14 12 5 3 9 12 8 4 5 5 2 3 3 2 3 3 8 6 9 13 10 10 7 5 6 8 11 12 11 10 10 16 26 30 31 32 31
39 38 37 37 38 36 36 37 35 33 28 26 29 30 20 7 5 7 3 4 4 6 5 9 14 16 18 16 13 13 8 3 4 9 12 10 8 9 8 9 10 9 7 8 7 2 3 7 6 6 13 19 15 6 2 6 9 5 4 5 5 2 2 2 2 2 6 6 2 4 10 9 13 7 2 8 8 8 10 12 14 12 17 27 30 29 28 26
36 36 35 37 37 36 35 32 32 33 30 27 30 26 12 7 9 10 5 3 3 4 7 10 14 17 19 18 14 11 9 5 5 8 14 14 10 10 10 12 16 11 7 11 9 5 4 4 6 7 5 14 17 11 6 6 9 8 7 7 5 3 4 5 5 2 5 3 3 2 7 5 11 5 6 13 12 13 16 19 21 20 23 28 26 25 24 23
35 34 34 36 35 34 33 30 30 32 31 31 27 16 9 9 7 11 12 6 3 2 9 12 14 17 19 18 14 13 10 6 6 7 11 14 13 12 9 12 16 6 4 11 8 9 11 6 10 12 8 15 18 15 14 10 10 10 7 6 5 4 5 6 5 3 3 1 2 1 4 4 5 3 6 10 11 15 19 23 24 22 26 27 23 23 24 26
32 32 33 32 33 34 32 32 31 30 34 33 18 7 9 9 5 8 11 7 2 3 9 12 14 15 15 15 14 16 13 8 9 7 7 11 14 14 10 10 14 5 6 11 5 7 13 7 9 13 12 19 18 13 16 12 7 6 4 5 6 5 4 2 2 2 1 1 2 2 4 4 4 6 10 7 8 10 14 18 18 21 26 25 25 29 31 33
29 30 31 31 34 35 32 34 31 31 36 29 10 7 11 9 5 6 6 6 5 6 10 12 13 12 12 11 10 14 12 6 8 7 3 6 10 15 14 9 13 12 9 11 4 4 10 6 9 12 10 19 20 13 16 15 8 5 5 6 4 2 6 4 2 2 4 3 4 3 6 6 3 9 12 10 8 7 9 12 13 20 24 22 28 36 37 35
28 29 31 33 36 34 33 35 31 34 37 22 8 10 9 7 6 6 5 6 8 11 12 9 9 10 11 10 9 15 12 4 7 7 2 2 4 11 16 12 15 17 13 10 3 3 7 3 8 14 13 18 22 19 16 10 6 6 8 7 4 3 3 2 3 2 3 5 4 2 8 6 2 7 7 9 11 9 8 9 9 15 18 20 29 34 32 28
29 27 28 33 35 32 33 34 32 37 33 14 10 13 6 4 5 4 7 8 7 11 11 7 7 8 10 10 10 14 15 9 8 7 3 4 3 6 13 13 15 21 20 13 4 2 5 2 3 12 13 10 13 15 10 3 1 3 8 8 6 3 3 2 3 2 3 5 5 4 5 5 8 7 1 4 11 11 11 10 9 11 14 20 27 29 28 27
26 20 21 31 34 32 33 33 36 38 22 6 12 14 4 2 3 3 9 12 6 7 9 6 6 6 7 10 11 14 16 13 11 8 5 5 2 4 9 10 13 20 22 16 7 3 5 4 2 5 7 10 9 9 10 6 3 1 5 6 3 3 5 5 4 3 4 5 7 6 4 5 9 8 6 7 10 10 11 10 9 11 15 21 25 26 26 26
24 13 12 26 32 31 33 35 35 28 11 6 12 8 3 4 3 4 9 11 6 4 7 6 7 8 6 8 10 12 13 15 14 10 7 7 4 4 6 9 11 17 20 15 7 3 3 4 2 0 4 10 8 8 13 15 9 5 8 8 6 4 2 2 4 3 4 6 7 7 7 9 6 5 10 12 11 11 12 11 10 13 16 20 20 19 18 17
24 9 8 22 29 30 35 31 21 12 5 8 9 4 3 5 4 4 6 7 3 2 4 6 8 9 8 8 9 8 10 13 14 9 6 8 7 3 5 9 12 16 17 12 8 5 3 4 5 3 5 9 11 13 18 22 19 13 12 12 13 11 6 5 8 4 2 5 5 5 10 11 5 5 9 12 12 12 11 9 9 11 14 16 16 16 17 16
21 6 6 20 27 33 36 20 7 5 6 8 5 3 5 5 5 5 4 4 3 1 0 4 5 5 7 8 8 8 8 9 13 10 7 10 11 7 9 14 17 19 17 13 12 8 3 3 6 5 5 6 6 6 6 11 17 14 8 9 10 9 7 8 10 5 3 4 2 1 8 9 4 7 8 9 10 11 9 6 7 12 16 17 18 19 18 19
18 6 6 16 27 36 30 10 4 6 4 5 7 4 4 5 3 3 3 3 3 2 1 1 3 3 3 4 7 9 8 7 12 12 9 11 12 11 16 20 20 18 14 11 11 6 3 3 5 4 1 1 3 3 4 1 9 10 4 4 7 10 10 8 5 4 4 6 5 3 9 11 5 7 8 7 6 8 9 8 9 15 21 22 22 22 19 19
15 9 10 20 34 38 22 6 7 7 2 5 9 4 1 2 3 4 4 3 3 3 2 2 3 3 3 3 5 7 8 6 9 12 10 8 10 15 24 28 24 15 11 10 11 9 5 5 7 6 2 0 2 1 2 3 3 8 8 8 10 14 13 4 1 2 2 8 10 7 12 13 4 3 5 4 2 5 9 11 10 13 19 22 22 21 19 18
10 7 9 21 34 31 14 6 8 7 6 8 8 7 6 2 2 2 3 3 3 3 3 2 2 4 4 3 4 3 2 2 3 9 8 4 6 11 22 30 25 16 16 17 14 12 7 5 8 10 9 8 7 8 10 9 8 9 12 15 15 18 18 10 6 6 7 11 12 10 14 12 3 3 3 2 0 4 10 12 12 12 17 20 19 18 17 15
7 4 5 10 17 15 7 7 8 5 8 12 7 7 9 5 2 2 3 3 4 4 3 2 2 5 4 4 6 4 1 2 2 5 7 6 4 4 17 29 24 20 25 23 16 9 2 2 9 12 12 13 13 12 14 15 15 13 16 21 20 20 22 17 10 10 12 13 12 12 19 18 6 1 5 5 4 6 9 10 11 11 13 15 14 13 14 13
7 5 5 4 4 4 3 5 6 5 8 12 7 5 9 8 4 2 2 1 2 3 3 2 2 4 6 8 6 3 2 3 3 2 4 6 2 0 14 25 22 24 27 21 17 10 2 4 10 12 15 14 7 4 6 11 16 20 22 24 23 21 21 18 13 15 16 12 11 15 21 23 13 3 5 8 7 6 7 9 10 9 9 10 10 11 13 13
6 4 7 8 4 2 3 6 8 9 9 9 4 3 10 11 8 5 1 1 1 2 2 2 3 1 7 11 7 4 4 3 1 2 1 3 2 2 7 11 15 24 22 13 14 11 2 6 11 10 16 15 3 3 7 11 14 18 21 23 23 22 22 21 21 22 18 13 16 22 22 21 15 7 6 8 9 9 9 10 9 7 7 8 9 11 12 13
6 3 5 8 5 2 3 6 11 13 11 9 5 4 12 15 11 5 2 3 2 1 1 3 2 2 6 8 6 6 8 6 5 5 2 4 4 3 6 4 7 16 15 8 9 9 4 7 9 9 14 15 6 1 4 11 13 15 19 20 20 22 24 25 25 26 22 17 19 23 20 17 16 12 10 10 11 11 10 9 8 6 4 5 7 10 11 12
11 8 7 7 2 2 5 6 10 11 8 8 8 6 10 14 11 5 2 3 5 4 3 6 7 5 5 5 6 6 9 7 8 9 6 6 5 3 5 5 4 9 12 7 6 7 8 8 9 8 10 14 11 7 5 9 14 16 19 18 17 18 19 20 20 19 18 17 21 24 19 18 17 12 11 13 13 9 7 9 10 8 6 5 6 8 10 11
18 15 14 11 3 5 8 5 7 10 6 5 7 7 8 11 12 8 4 2 2 5 6 9 10 6 3 4 5 5 6 5 6 7 8 8 5 3 2 2 3 8 12 8 4 6 8 7 7 7 7 10 11 12 10 9 11 17 19 19 18 17 16 18 19 19 19 20 24 23 18 19 17 7 7 11 13 10 9 11 14 15 14 13 11 11 11 10
20 16 17 13 5 6 9 6 6 9 6 4 8 9 7 10 11 10 6 3 5 2 7 12 12 7 5 6 6 7 8 7 6 6 8 7 5 6 5 2 4 5 9 8 5 5 8 7 6 7 7 6 8 13 13 9 10 13 15 17 21 21 21 21 22 24 24 21 20 18 19 19 10 5 6 10 13 15 16 17 19 21 20 20 21 20 18 16
Wind_Direction
235 237 237 238 238 237 236 235 235 233 231 232 234 236 235 232 229 228 229 231 229 228 225 218 215 210 212 221 224 224 225 226 229 231 230 229 224 216 219 227 227 225 229 228 219 217 216 213 214 209 203 203 208 202 195 190 177 168 133 136 184 186 199 186 185 195 172 207 209 197 190 183 195 200 198 199 206 214 205 205 210 214 220 227 235 246 249 221
234 235 235 235 236 236 235 234 234 234 232 232 234 235 235 232 230 228 228 231 230 228 227 219 213 209 207 213 222 225 228 232 236 237 233 229 223 218 218 223 225 221 221 224 216 215 217 214 212 207 200 201 203 192 189 183 174 166 101 158 210 191 195 194 184 193 200 236 199 198 194 189 198 190 185 196 204 194 197 212 219 225 224 225 232 234 237 227
233 233 233 233 234 234 235 234 233 234 233 232 233 235 235 232 230 228 227 229 230 228 227 223 215 211 208 208 218 227 231 238 245 241 234 227 225 221 218 221 225 219 217 221 214 214 219 218 214 206 199 202 200 189 186 181 181 179 130 180 236 205 206 213 196 203 224 238 196 191 194 193 202 190 185 195 192 189 207 213 215 226 228 224 226 228 231 227
232 232 232 232 232 233 233 233 233 233 232 232 232 234 235 232 229 228 227 228 229 228 228 226 217 211 208 207 212 224 231 237 247 245 235 226 225 222 217 221 226 219 216 219 212 211 218 220 216 207 200 203 196 192 190 185 186 184 165 192 220 187 200 226 209 218 239 241 225 187 180 193 199 188 187 180 156 230 231 221 220 228 232 227 223 225 230 226
231 231 232 232 231 231 232 232 232 232 232 232 231 234 235 233 229 227 227 227 227 227 227 227 219 211 205 209 213 218 222 228 249 247 240 229 223 221 217 220 225 220 215 216 213 209 213 216 212 203 200 200 183 183 206 196 182 176 207 209 177 162 180 233 214 224 241 234 216 177 171 192 185 184 194 183 176 229 232 230 232 237 239 237 233 231 229 227
230 230 231 232 231 230 231 231 231 231 232 232 231 233 234 233 229 227 227 227 227 225 226 226 221 213 203 212 219 212 212 218 253 242 241 237 226 220 217 218 222 221 215 213 212 208 209 209 204 198 192 192 182 180 206 197 186 191 236 226 194 181 180 218 207 217 227 209 196 186 188 186 169 185 202 195 210 227 233 240 241 243 240 239 242 236 231 229
228 228 229 230 230 229 230 230 230 229 232 232 230 231 233 233 229 227 226 227 228 224 226 226 222 215 204 218 226 208 210 225 227 221 246 239 229 224 219 218 220 219 215 212 211 208 207 203 198 194 185 191 193 197 205 193 194 208 233 223 210 204 199 200 198 210 213 206 210 196 190 184 175 191 201 206 225 231 233 241 248 250 238 234 237 237 237 238
226 227 227 228 229 229 229 229 229 228 231 232 230 230 232 232 229 226 225 227 228 225 228 225 222 216 208 219 221 201 209 224 226 228 247 236 219 222 223 222 221 217 215 212 211 208 205 201 198 194 188 200 195 198 195 181 204 220 221 213 202 212 211 201 194 206 208 212 215 191 192 200 194 195 200 217 231 235 233 237 250 256 238 231 234 236 237 237
224 226 225 226 228 228 228 228 228 227 229 231 230 229 230 231 228 225 224 227 228 227 229 226 221 216 211 220 214 198 217 222 223 225 231 240 226 223 224 223 221 217 213 211 212 210 204 201 198 194 197 206 199 197 184 176 229 219 216 210 190 216 215 209 211 212 211 210 197 186 209 218 200 205 232 229 235 239 235 236 244 249 238 229 231 235 235 235
222 224 223 225 227 227 227 227 227 226 227 231 231 228 229 230 227 224 222 226 229 227 230 227 222 215 213 222 215 210 226 221 221 224 227 238 244 247 238 226 221 216 212 208 210 211 206 204 202 197 206 212 201 201 184 184 222 215 211 212 211 220 217 221 226 225 219 215 204 194 219 226 192 201 243 234 234 239 236 233 235 238 238 230 229 234 235 238
222 222 222 223 225 226 226 226 227 226 227 229 231 229 228 229 226 223 221 224 227 226 230 229 223 217 216 223 221 220 226 220 222 224 226 235 242 247 248 236 222 216 212 207 210 213 208 208 204 196 205 214 192 196 198 199 219 216 196 206 232 233 235 232 230 224 211 219 218 203 230 241 172 199 233 230 231 236 234 232 232 233 236 232 229 232 235 239
221 221 221 222 224 225 225 226 225 226 228 228 231 230 227 229 226 222 221 222 225 225 229 229 225 219 219 231 231 223 223 222 222 223 226 233 240 243 246 244 226 217 214 209 210 212 209 208 204 197 195 183 166 159 223 209 210 204 168 179 253 260 276 237 227 218 198 216 210 183 281 264 208 226 227 227 233 237 236 233 234 235 237 235 232 231 234 240
219 220 220 220 222 223 224 225 224 226 227 227 230 229 228 228 225 222 220 221 223 224 228 229 227 222 221 233 233 225 220 222 222 224 230 235 240 237 238 242 227 219 218 215 213 212 210 207 204 203 195 176 166 153 206 197 188 178 152 149 245 272 285 232 212 193 188 211 178 159 245 248 229 238 228 230 237 237 239 238 237 238 239 237 235 235 235 237
218 219 219 218 220 222 223 224 223 224 226 227 228 229 228 226 225 222 219 220 222 222 226 229 227 223 225 234 235 228 222 221 218 222 230 232 233 230 230 234 223 213 212 213 213 211 209 205 204 207 199 187 176 158 120 146 162 158 146 191 177 191 267 250 187 161 175 225 177 160 231 248 240 245 235 235 237 235 238 240 242 241 240 239 237 238 239 238
216 218 218 217 219 221 222 223 223 223 224 226 227 228 228 226 226 221 217 220 221 221 224 229 228 221 228 238 238 231 223 221 216 213 219 223 226 225 224 230 225 213 207 208 207 200 200 199 196 200 197 184 167 147 104 40 28 151 183 214 175 194 259 296 190 171 182 217 180 163 224 257 258 250 241 236 231 230 234 239 242 241 240 239 238 239 240 240
214 215 217 216 217 220 221 222 223 223 223 224 225 227 228 227 225 220 217 219 221 221 220 228 228 220 232 246 229 223 218 218 218 215 217 222 224 221 221 230 231 220 210 209 208 194 188 187 184 187 183 169 164 139 109 162 247 225 204 199 167 187 218 290 246 197 198 164 181 203 230 255 270 242 230 227 223 222 228 237 239 239 240 239 239 239 240 241
212 213 215 215 215 219 220 221 222 222 222 221 222 225 228 227 224 219 216 217 220 220 219 226 227 223 234 237 207 209 210 213 216 217 218 221 224 221 220 226 227 221 211 204 206 195 179 170 170 183 176 158 161 140 159 209 214 207 198 203 193 184 190 222 282 224 208 175 200 221 236 242 243 204 195 203 219 219 225 236 240 240 242 242 242 241 242 242
210 210 212 213 214 216 217 219 219 220 220 218 220 224 226 225 222 219 218 217 215 218 224 226 219 216 229 225 208 203 208 209 208 212 212 209 217 218 215 219 217 207 199 191 194 188 172 159 158 175 167 172 169 171 204 213 200 192 189 194 189 175 197 201 226 210 189 195 215 202 232 246 242 230 229 233 220 217 226 235 242 244 244 246 246 245 245 245
208 208 210 212 212 213 215 216 216 218 216 214 217 219 222 220 217 218 219 216 208 208 223 217 211 210 271 224 212 204 208 208 206 207 203 196 203 204 202 209 202 183 178 168 177 177 164 143 152 189 188 194 194 195 206 199 181 189 182 173 163 181 221 213 235 225 173 180 223 202 223 245 241 240 249 251 244 235 242 242 243 247 247 247 247 248 249 249
206 206 208 210 210 211 213 214 215 216 212 211 210 208 212 206 202 217 215 216 212 208 218 215 210 217 245 233 209 201 189 199 202 200 200 197 193 187 184 190 190 185 183 165 165 171 166 157 185 204 205 199 200 202 202 162 144 160 156 169 174 190 234 228 244 267 180 177 228 216 226 247 244 239 247 250 250 252 255 252 246 246 247 247 245 246 247 249
204 204 206 207 208 209 212 212 213 212 209 211 208 202 203 194 187 202 201 211 217 213 221 225 215 216 223 235 211 199 178 182 193 193 198 197 188 182 174 174 180 201 201 165 138 156 169 183 204 207 209 200 199 202 195 168 139 144 160 180 185 197 226 217 210 279 184 182 248 229 234 255 252 246 250 247 239 247 249 249 246 246 248 248 247 246 246 249
202 202 204 205 206 208 210 210 211 211 209 212 210 206 211 205 201 205 192 205 225 216 221 227 226 224 221 227 220 196 179 175 185 188 190 188 184 183 169 167 179 211 202 163 133 149 172 205 213 206 202 192 193 197 199 198 163 153 164 170 190 193 200 253 222 351 164 184 260 242 233 257 256 246 251 241 226 244 248 246 249 249 249 249 248 248 248 249
201 200 201 203 205 206 207 209 209 209 209 212 213 211 215 211 206 212 192 201 245 219 220 224 228 235 229 227 227 206 186 180 176 181 185 182 182 185 172 164 188 200 193 175 166 162 182 214 212 195 182 189 196 193 197 205 190 176 165 170 190 162 160 235 243 82 195 190 235 259 263 267 266 258 256 241 233 246 250 247 252 252 249 250 252 253 252 252
199 198 199 202 203 204 205 207 206 209 211 212 216 215 215 211 204 206 195 198 293 220 219 223 225 234 233 227 224 216 204 196 181 177 183 182 179 183 182 174 186 199 195 190 186 185 205 212 185 169 180 192 191 187 191 200 206 205 193 195 183 146 174 201 150 119 313 309 118 354 301 273 257 248 254 243 232 244 249 243 250 252 251 252 252 254 255 254
196 196 198 199 201 203 202 204 206 209 212 214 219 219 215 210 204 204 196 218 280 211 216 220 222 233 232 228 221 212 208 210 197 180 180 185 183 178 184 186 185 197 196 193 192 202 217 172 148 168 188 186 186 190 190 192 203 217 217 205 174 150 163 145 126 121 53 279 236 120 272 271 261 237 244 243 215 235 241 231 241 246 248 248 247 250 253 253
196 195 196 197 199 198 197 205 209 208 213 218 218 217 214 208 202 202 189 19 248 189 175 200 208 225 223 222 210 197 203 222 205 187 181 187 189 180 179 187 189 204 194 191 199 211 213 168 157 174 174 175 191 198 190 185 196 218 198 170 156 149 150 141 142 146 184 252 271 160 227 268 292 246 239 233 215 238 237 226 240 243 243 243 243 248 251 251
196 194 195 197 197 194 195 204 208 205 211 218 216 214 213 205 201 199 182 326 240 168 147 180 186 200 207 209 192 179 174 180 188 191 184 184 187 185 185 178 183 211 187 167 215 197 171 177 170 166 163 172 194 199 192 183 190 212 153 134 140 143 151 155 153 180 219 263 321 181 206 272 275 254 233 195 214 250 250 243 246 242 240 242 243 247 249 249
193 193 194 196 197 198 200 203 207 206 209 216 215 211 210 203 198 187 174 244 193 135 149 175 179 186 190 192 188 187 162 151 167 194 186 183 184 188 198 182 180 198 177 168 213 192 167 182 175 167 170 182 198 196 180 175 191 237 135 128 129 126 136 141 143 184 269 5 245 213 145 257 261 257 202 157 212 248 250 243 242 236 237 242 245 248 249 250
190 192 194 195 197 202 206 209 211 211 210 214 213 209 208 202 193 169 191 233 153 121 150 164 175 176 165 170 185 197 199 158 166 183 181 185 187 191 211 186 181 185 181 190 207 186 172 189 178 169 176 192 194 168 159 172 189 163 118 104 96 95 95 100 122 144 76 282 235 207 169 228 265 253 224 166 215 236 244 242 238 231 235 241 245 248 251 252
191 193 194 195 197 200 207 213 215 216 212 211 211 206 200 195 182 174 222 212 118 132 143 154 164 153 150 157 184 196 199 136 147 168 174 186 187 191 205 185 181 173 181 202 205 218 9 170 170 172 183 172 124 121 158 168 151 124 111 92 82 62 66 75 59 97 100 258 233 194 180 205 269 250 215 205 204 219 236 248 245 231 232 239 244 248 251 252
192 195 194 195 198 199 203 209 212 214 211 209 206 193 185 182 177 219 211 150 99 168 144 155 158 147 154 164 182 186 179 150 165 161 168 185 185 186 176 175 177 162 180 204 202 216 70 129 156 181 171 144 112 114 140 137 139 126 103 127 124 60 47 58 28 89 209 248 229 183 171 186 243 243 201 222 218 217 228 235 239 228 226 236 241 247 250 250
193 195 196 198 202 203 205 208 208 208 209 208 196 180 172 181 214 222 203 105 157 184 162 159 159 157 163 171 185 180 154 166 196 168 169 179 190 188 175 175 169 161 186 193 182 173 136 158 165 155 159 149 135 137 92 126 150 128 95 144 154 149 126 158 176 179 226 248 300 168 155 188 241 247 255 256 243 229 229 231 234 226 228 238 242 244 246 247
194 196 198 200 204 206 208 210 207 205 206 201 186 173 176 225 209 201 191 158 212 190 155 162 168 166 165 175 191 173 156 182 188 181 181 179 191 198 194 189 176 173 181 174 171 167 178 212 166 128 149 167 155 153 171 164 164 165 153 161 174 159 166 197 192 213 236 239 348 150 153 224 261 270 251 245 241 233 232 236 237 231 234 242 244 242 242 242
194 197 199 201 206 209 209 210 208 206 201 189 180 174 202 227 200 189 189 189 272 194 148 162 172 166 169 185 189 165 167 197 176 184 187 179 191 197 200 198 186 178 130 160 175 173 179 210 179 167 172 179 176 175 176 162 165 184 165 155 189 186 188 202 192 222 238 215 331 208 167 208 229 274 265 248 255 252 241 239 239 238 240 245 248 246 244 244
194 198 201 203 208 211 210 210 210 208 195 183 180 192 208 218 202 189 188 172 234 199 145 160 167 166 180 192 187 178 185 192 176 193 197 183 195 193 189 195 188 167 123 162 179 175 188 216 183 174 164 172 184 179 163 151 159 189 138 152 212 202 152 120 183 217 144 136 270 213 227 232 209 278 287 269 275 272 254 248 245 245 247 250 256 255 254 255
193 198 203 207 210 211 209 208 210 207 192 180 189 213 203 220 211 178 183 160 170 160 142 160 171 172 185 189 186 189 193 183 168 191 219 186 202 196 186 188 183 173 160 167 156 160 194 214 172 161 157 178 183 165 159 163 160 170 174 185 205 130 111 115 233 350 60 237 245 174 243 282 316 282 266 241 251 270 263 257 248 246 248 251 255 257 258 260
194 199 204 209 212 211 208 207 209 204 192 183 211 215 199 224 202 164 185 173 155 152 148 165 181 178 182 183 190 185 178 164 162 181 205 166 220 204 189 185 178 178 182 177 172 182 180 185 170 165 172 187 177 158 164 174 147 156 188 180 125 70 79 118 219 17 55 252 266 190 235 259 283 268 249 218 232 245 251 252 244 247 248 245 248 252 255 255
198 202 210 214 213 209 205 208 208 201 194 188 219 216 197 211 207 178 185 180 159 155 158 169 175 183 186 177 187 184 175 176 169 167 181 174 247 221 189 185 179 183 189 181 179 210 156 97 208 184 175 166 152 150 165 212 274 170 175 163 136 167 215 167 186 202 194 246 272 234 233 239 221 231 217 211 229 232 241 244 239 242 239 239 247 253 256 254
198 201 217 220 213 206 204 207 203 198 194 195 215 215 191 172 237 233 179 175 174 162 165 176 167 181 193 175 179 180 178 184 174 167 192 177 210 244 193 183 183 185 187 183 179 191 159 141 212 207 167 140 145 167 174 193 271 35 133 149 150 190 198 188 187 186 181 226 260 247 227 241 227 198 164 213 228 224 235 244 243 243 238 241 250 257 261 259
193 191 230 223 211 204 203 201 196 194 195 215 211 206 165 179 219 239 185 169 173 178 172 179 172 172 180 179 183 178 179 190 184 182 198 172 163 253 214 185 182 181 184 191 194 164 150 158 145 268 166 154 169 189 178 179 183 164 164 176 189 191 169 197 205 176 164 206 241 253 248 250 242 175 177 206 219 214 216 226 238 247 248 248 252 256 261 266
189 189 240 219 209 200 195 193 193 193 205 216 212 191 176 186 168 182 180 149 143 220 178 167 172 174 172 176 186 180 179 193 195 190 190 177 178 227 218 186 174 171 175 192 208 184 166 174 155 163 186 177 188 195 189 186 181 178 187 186 189 189 169 191 211 195 175 211 202 230 259 260 233 182 190 201 216 221 212 215 235 248 254 255 259 262 263 270
184 196 224 209 206 194 187 189 195 189 206 207 189 142 160 159 151 171 162 126 129 322 324 155 160 166 170 173 178 176 168 187 201 197 183 189 197 200 193 184 175 173 174 184 199 187 131 131 145 155 193 194 200 203 196 193 189 189 198 188 187 191 176 194 212 195 179 224 176 181 270 273 205 179 195 199 217 237 236 241 270 272 270 270 272 275 272 268
183 186 175 189 196 189 184 196 208 183 211 174 132 103 137 138 147 181 161 147 148 97 31 178 163 164 183 170 165 173 172 179 201 202 187 191 200 189 177 174 172 177 180 181 187 179 76 106 141 136 214 322 355 2 21 39 194 196 209 179 176 192 197 200 206 172 177 214 206 217 258 263 226 186 199 199 213 249 252 244 259 268 270 274 277 280 279 270
178 165 156 174 185 185 185 211 204 186 198 148 130 113 107 106 132 169 168 161 141 130 157 219 198 164 167 153 147 170 183 183 197 202 196 190 189 177 173 173 171 174 189 187 177 176 177 167 157 152 169 44 19 23 46 31 192 198 204 197 187 192 193 181 114 138 203 214 203 216 246 252 256 164 192 195 202 269 263 247 245 260 268 274 278 282 280 270
155 156 176 182 183 185 195 229 206 185 166 152 141 147 148 79 53 131 132 132 134 134 147 246 205 123 115 138 106 98 170 155 180 195 194 184 172 168 172 176 172 171 194 196 176 173 188 184 175 176 179 183 185 189 188 181 183 199 202 196 194 191 186 185 197 196 212 215 202 211 238 247 338 25 242 242 237 264 268 263 260 263 269 276 282 284 279 267
155 172 190 192 188 190 223 233 199 180 168 155 142 157 155 134 95 53 74 138 161 135 122 258 198 115 103 133 100 70 128 61 65 178 182 174 171 171 176 177 176 179 189 186 167 157 176 217 199 201 203 200 199 201 193 179 178 189 195 195 197 195 191 193 202 204 212 219 213 218 234 241 253 323 254 240 209 232 253 262 262 262 268 277 281 278 274 259
170 188 172 178 190 179 236 227 187 183 183 162 148 166 151 135 133 78 22 192 175 135 107 327 242 140 145 154 133 124 161 88 70 164 179 176 157 345 180 178 182 186 182 174 163 154 111 226 212 221 227 222 213 191 172 172 185 192 193 196 196 193 193 197 207 213 212 218 230 228 233 239 237 217 238 230 210 223 245 250 254 258 261 262 254 248 251 246
172 179 169 173 178 163 198 207 176 171 183 167 141 157 148 141 148 152 99 31 116 148 112 25 318 156 154 160 149 140 146 112 134 204 202 170 115 60 174 185 194 188 176 161 169 162 132 223 215 225 235 235 228 97 149 172 195 202 198 197 194 189 191 197 209 218 211 208 230 230 229 238 238 221 225 226 209 208 220 227 231 229 231 236 226 224 232 233
160 122 143 167 177 155 161 180 167 160 169 161 129 152 159 151 151 151 110 102 132 251 139 137 225 217 155 154 134 143 164 161 183 207 191 164 164 132 151 184 213 193 176 158 174 168 154 215 218 221 239 244 243 266 184 175 188 208 207 202 197 192 194 200 209 218 216 217 233 237 238 245 241 223 214 219 219 219 225 232 232 223 225 230 218 217 222 222
176 163 147 146 138 117 133 165 165 154 164 164 146 162 167 154 149 142 97 139 166 192 172 150 167 173 152 138 125 163 187 173 177 193 171 160 190 189 167 178 186 183 180 172 178 178 176 199 201 198 235 244 231 238 242 189 189 206 210 206 201 195 200 209 218 224 224 229 240 245 249 251 243 219 199 211 220 230 245 248 246 246 250 253 241 226 219 218
189 180 167 152 135 151 151 172 175 154 164 180 154 156 162 155 153 139 78 13 157 169 171 154 146 141 121 126 140 182 194 154 148 165 151 151 166 133 140 207 168 172 182 176 158 174 186 192 179 181 231 242 213 213 228 216 204 210 208 202 195 192 200 209 216 219 215 218 233 241 244 248 246 213 173 208 217 223 234 233 236 241 240 248 259 249 234 230
188 179 173 164 153 164 162 174 184 162 161 169 151 152 158 156 155 140 110 27 4 77 153 148 139 132 141 165 187 194 174 141 108 120 140 148 130 98 97 65 63 136 178 179 160 166 185 193 177 179 217 236 205 205 216 218 217 217 208 195 191 195 201 207 215 220 214 211 222 229 233 243 244 125 157 212 210 216 224 219 225 235 237 244 254 253 249 249